Tracking 30072 objects as of 14-Jan-2025
HD Live streaming from Space Station
objects crossing your sky now

STARLINK-1845

Track STARLINK-1845 now!
10-day predictions
STARLINK-1845 is classified as:


NORAD ID: 47135
Int'l Code: 2020-088P
Perigee: 553.5 km
Apogee: 555.2 km
Inclination: 53.1 °
Period: 95.6 minutes
Semi major axis: 6925 km
RCS: Unknown
Launch date: November 25, 2020
Source: United States (US)
Launch site: AIR FORCE EASTERN TEST RANGE (AFETR)
Your satellite tracking list
Your tracking list is empty




NASA's NSSDC Master Catalog

Two Line Element Set (TLE):
1 47135U 20088P   25014.16720211  .00001360  00000-0  11019-3 0  9995
2 47135  53.0561  14.9298 0001230  99.7719 260.3408 15.06397429229050
Source of the keplerian elements: AFSPC